Weather observations for the past three days for
Branson
Imperial (Metric)
Date Time (cdt) Wind (mph) Vis. (mi.) Weather Sky Cond. Temperature (ºF) Relative Humidity Wind Chill (°F) Heat Index (°F) Pressure Precipitation (in)
Air Dwpt 6 hour altimeter (in) sea level (mb) 1 hr 3 hr 6 hr
Max. Min.
15 03:15 SW 5 10.00 Fair CLR 77 71.6 83% 78 30.02 0.0
15 02:55 Calm 10.00 Fair CLR 77 71.6 83% 78 30.02 0.0
15 02:35 Calm 10.00 Fair CLR 77 71.6 83% 78 30.02 0.0
15 02:15 Calm 10.00 Fair CLR 77 71.6 83% 78 30.02 0.0
15 01:55 Calm 10.00 Fair CLR 77 71.6 83% 78 30.03 0.0
15 01:35 Calm 10.00 Fair CLR 77 71.6 83% 78 30.03 0.0
15 01:15 Calm 10.00 Fair CLR 77 71.6 83% 78 30.03 0.0
15 00:55 Calm 10.00 Fair CLR 77 71.6 83% 78 30.04 0.0
15 00:35 Calm 10.00 Fair CLR 77 71.6 83% 78 30.04 0.0
15 00:15 Calm 10.00 Fair CLR 77 71.6 83% 78 30.04 0.0
14 23:55 Calm 10.00 Fair CLR 77 71.6 83% 78 30.04 0.0
14 23:35 Calm 10.00 Fair CLR 78.8 71.6 79% 82 30.04 0.0
14 23:15 Calm 10.00 Fair CLR 78.8 71.6 79% 82 30.04 0.0
14 22:55 Calm 10.00 Fair CLR 78.8 71.6 79% 82 30.04 0.0
14 22:35 Calm 10.00 Fair CLR 80.6 71.6 74% 85 30.05 0.0
14 22:15 Calm 10.00 Fair CLR 80.6 71.6 74% 85 30.04 0.0
14 21:55 Calm 10.00 Fair CLR 80.6 71.6 74% 85 30.04 0.0
14 21:35 Calm 10.00 Fair CLR 80.6 71.6 74% 85 30.04 0.0
14 21:15 Calm 10.00 Fair CLR 80.6 71.6 74% 85 30.04 0.0
14 20:55 Calm 10.00 Fair CLR 82.4 71.6 70% 87 30.04 0.0
14 19:45 Calm 10.00 Fair CLR 86 71.6 62% 92 30.05 0.0
14 18:45 Calm 10.00 Fair CLR 87.8 71.6 59% 94 30.05 0.0
14 17:45 S 6 10.00 Mostly Cloudy BKN050 91.4 71.6 52% 99 30.04 0.0
14 16:45 Calm 10.00 A Few Clouds FEW049 91.4 71.6 52% 99 30.04 0.0
14 15:45 S 5 10.00 A Few Clouds FEW049 91.4 71.6 52% 99 30.08 0.0
14 14:45 S 7 10.00 Fair CLR 91.4 71.6 52% 99 30.09 0.0
14 13:45 S 5 10.00 Fair CLR 89.6 71.6 55% 96 30.1 0.0
14 12:55 SW 5 10.00 A Few Clouds FEW039 89.6 71.6 55% 96 30.13 0.0
14 11:45 W 3 10.00 Fair CLR 86 71.6 62% 92 30.16 0.0
14 10:52 SW 5 10.00 Fair CLR 84.2 71.6 66% 90 30.17 0.0
14 09:46 SW 7 10.00 Fair CLR 82.4 71.6 70% 87 30.17 0.0
14 08:45 S 7 10.00 Fair CLR 78.8 71.6 79% 82 30.16 0.0
14 07:46 Calm 10.00 Fair CLR 75.2 71.6 89% 75 30.16 0.0
14 06:45 Calm 10.00 Fair CLR 71.6 71.6 100% 30.14 0.0
14 06:15 Calm 10.00 Fair CLR 71.6 69.8 94% 30.14 0.0
14 05:55 Calm 10.00 Fair CLR 69.8 69.8 100% 30.14 0.0
14 05:35 Calm 10.00 Fair CLR 71.6 69.8 94% 30.13 0.0
14 05:15 Calm 10.00 Fair CLR 71.6 69.8 94% 30.13 0.0
14 04:55 Calm 10.00 Fair CLR 71.6 69.8 94% 30.13 0.0
14 04:35 Calm 10.00 Fair CLR 71.6 69.8 94% 30.13 0.0
14 04:15 Calm 10.00 Fair CLR 71.6 69.8 94% 30.13 0.0
14 03:55 Calm 10.00 Fair CLR 71.6 69.8 94% 30.13 0.0
14 03:35 Calm 10.00 Fair CLR 73.4 69.8 89% 30.13 0.0
14 03:15 Calm 10.00 Fair CLR 73.4 69.8 89% 30.13 0.0
14 02:55 Calm 10.00 Fair CLR 73.4 69.8 89% 30.14 0.0
14 02:35 Calm 10.00 Fair CLR 75.2 69.8 83% 75 30.14 0.0
14 02:15 Calm 10.00 Fair CLR 75.2 71.6 89% 75 30.14 0.0
14 01:55 Calm 10.00 Fair CLR 75.2 69.8 83% 75 30.15 0.0
14 01:35 Calm 10.00 Fair CLR 75.2 69.8 83% 75 30.15 0.0
14 01:15 Calm 10.00 Fair CLR 75.2 71.6 89% 75 30.16 0.0
14 00:55 Calm 10.00 Fair CLR 77 71.6 83% 78 30.16 0.0
14 00:35 S 3 10.00 Fair CLR 77 71.6 83% 78 30.17 0.0
14 00:15 Calm 10.00 Fair CLR 77 69.8 79% 79 30.17 0.0
13 23:55 Calm 10.00 Fair CLR 77 69.8 79% 79 30.17 0.0
13 23:35 Calm 10.00 Fair CLR 77 69.8 79% 79 30.17 0.0
13 23:15 Calm 10.00 Fair CLR 77 68 74% 79 30.17 0.0
13 22:55 Calm 10.00 Fair CLR 77 69.8 79% 79 30.17 0.0
13 22:35 Calm 10.00 Fair CLR 77 69.8 79% 79 30.17 0.0
13 22:15 Calm 10.00 Fair CLR 77 69.8 79% 79 30.17 0.0
13 21:55 Calm 10.00 Fair CLR 77 69.8 79% 79 30.17 0.0
13 21:35 Calm 10.00 Fair CLR 78.8 68 70% 81 30.17 0.0
13 21:15 Calm 10.00 Fair CLR 80.6 68 66% 83 30.16 0.0
13 20:55 Calm 10.00 Fair CLR 80.6 68 66% 83 30.16 0.0
13 20:45 Calm 10.00 Fair CLR 80.6 68 66% 83 30.16 0.0
13 19:45 Calm 10.00 Fair CLR 84.2 73.4 70% 91 30.14 0.0
13 18:45 SE 7 10.00 Fair CLR 86 73.4 66% 93 30.13 0.0
13 17:45 S 8 10.00 Fair CLR 87.8 73.4 62% 96 30.13 0.0
13 16:45 SE 9 10.00 Fair CLR 89.6 75.2 63% 100 30.15 0.0
13 14:45 Calm 10.00 Fair CLR 84.2 73.4 70% 91 30.2 0.0
13 13:45 Calm 10.00 Fair CLR 84.2 71.6 66% 90 30.23 0.0
13 12:46 E 3 10.00 Partly Cloudy FEW025 SCT100 82.4 75.2 79% 89 30.25 0.0
13 11:45 Calm 10.00 Mostly Cloudy BKN100 80.6 73.4 79% 85 30.26 0.0
13 10:56 Calm 10.00 Mostly Cloudy BKN100 78.8 73.4 84% 82 30.26 0.0
13 09:45 Calm 10.00 Mostly Cloudy BKN100 78.8 71.6 79% 82 30.25 0.0
13 08:46 Calm 10.00 A Few Clouds FEW120 77 71.6 83% 78 30.23 0.0
13 07:45 Calm 10.00 Fair CLR 73.4 69.8 89% 30.21 0.0
13 06:48 S 6 10.00 Fair CLR 73.4 68 83% 30.18 0.0
13 06:15 SE 5 10.00 Fair CLR 71.6 68 88% 30.17 0.0
13 05:55 Calm 10.00 Fair CLR 71.6 68 88% 30.17 0.0
13 05:35 Calm 10.00 Fair CLR 71.6 68 88% 30.18 0.0
13 05:15 S 3 10.00 Partly Cloudy SCT120 71.6 68 88% 30.17 0.0
13 04:55 Calm 10.00 Mostly Cloudy BKN120 71.6 68 88% 30.17 0.0
13 04:35 Calm 10.00 Partly Cloudy SCT120 71.6 69.8 94% 30.17 0.0
13 04:15 Calm 10.00 Fair CLR 71.6 68 88% 30.16 0.0
13 03:55 Calm 10.00 Fair CLR 73.4 69.8 89% 30.15 0.0
13 03:35 Calm 10.00 Fair CLR 73.4 69.8 89% 30.15 0.0
13 03:15 S 3 10.00 A Few Clouds FEW120 73.4 69.8 89% 30.15 0.0
13 02:55 Calm 10.00 Partly Cloudy SCT120 71.6 69.8 94% 30.15 0.0
13 02:35 Calm 10.00 Partly Cloudy SCT120 73.4 69.8 89% 30.15 0.0
13 02:15 Calm 10.00 Fair CLR 73.4 69.8 89% 30.15 0.0
13 01:55 Calm 10.00 Fair CLR 73.4 69.8 89% 30.15 0.0
13 01:35 S 6 10.00 Fair CLR 73.4 69.8 89% 30.15 0.0
13 01:15 Calm 10.00 Fair CLR 75.2 69.8 83% 75 30.15 0.0
13 00:55 Calm 10.00 Fair CLR 75.2 69.8 83% 75 30.15 0.0
13 00:35 Calm 10.00 Fair CLR 73.4 69.8 89% 30.15 0.0
13 00:15 Calm 10.00 Fair CLR 73.4 69.8 89% 30.15 0.0
12 23:55 Calm 10.00 Fair CLR 75.2 69.8 83% 75 30.15 0.0
12 23:35 Calm 10.00 A Few Clouds FEW047 75.2 69.8 83% 75 30.15 0.0
12 23:15 Calm 10.00 A Few Clouds FEW047 75.2 69.8 83% 75 30.15 0.0
12 22:55 Calm 10.00 A Few Clouds FEW045 75.2 71.6 89% 75 30.15 0.0
12 22:35 Calm 10.00 Fair CLR 75.2 69.8 83% 75 30.15 0.0
12 22:15 Calm 10.00 Fair CLR 75.2 69.8 83% 75 30.15 0.0
12 21:55 Calm 10.00 Fair CLR 75.2 69.8 83% 75 30.14 0.0
12 21:35 Calm 10.00 Fair CLR 75.2 71.6 89% 75 30.14 0.0
12 21:15 Calm 10.00 Fair CLR 77 71.6 83% 78 30.13 0.0
12 20:55 Calm 10.00 Fair CLR 77 71.6 83% 78 30.12 0.0
12 20:45 S 6 10.00 Fair CLR 77 71.6 83% 78 30.11 0.0
12 19:45 S 6 10.00 Fair CLR 82.4 71.6 70% 87 30.11 0.0
12 18:45 S 7 10.00 Fair CLR 84.2 71.6 66% 90 30.11 0.0
12 17:45 SE 9 10.00 Fair CLR 86 69.8 59% 91 30.1 0.0
12 16:45 SE 7 10.00 Fair CLR 86 68 55% 89 30.11 0.0
12 15:45 S 6 10.00 Mostly Cloudy BKN090 82.4 71.6 70% 87 30.13 0.0
12 14:45 S 7 10.00 Mostly Cloudy BKN100 78.8 71.6 79% 82 30.14 0.0
12 13:45 S 6 10.00 Partly Cloudy FEW060 SCT080 73.4 68 83% 30.17 0.0
12 12:45 N 8 10.00 Mostly Cloudy BKN100 73.4 69.8 89% 30.21 0.0
12 11:45 NE 12 10.00 Mostly Cloudy BKN110 77 69.8 79% 79 30.17 0.0
12 10:55 Calm 10.00 Partly Cloudy FEW075 SCT090 75.2 68 78% 76 30.17 0.0
12 09:45 S 9 10.00 Mostly Cloudy FEW044 SCT070 BKN100 75.2 68 78% 76 30.12 0.0
12 08:45 Calm 10.00 Partly Cloudy SCT110 75.2 68 78% 76 30.16 0.0
12 07:55 Calm 10.00 Partly Cloudy FEW049 SCT090 75.2 68 78% 76 30.18 0.0
12 06:50 Calm 10.00 Fair CLR 71.6 69.8 94% 30.14 0.0
12 06:15 Calm 9.00 Fair CLR 69.8 68 94% 30.12 0.0
12 05:55 Calm 10.00 Fair CLR 71.6 68 88% 30.12 0.0
12 05:35 Calm 10.00 Partly Cloudy SCT100 71.6 68 88% 30.13 0.0
12 05:15 Calm 10.00 Mostly Cloudy BKN100 BKN120 71.6 68 88% 30.13 0.0
12 04:55 Calm 10.00 Partly Cloudy SCT120 71.6 68 88% 30.11 0.0
12 04:35 Calm 10.00 Fair CLR 71.6 68 88% 30.1 0.0
12 04:15 Calm 10.00 Fair CLR 73.4 68 83% 30.09 0.0
12 03:55 Calm 10.00 Fair CLR 73.4 68 83% 30.08 0.0
Date Time (cdt) Wind (mph) Vis. (mi.) Weather Sky Cond. Air Dwpt Max. Min. Relative Humidity Wind Chill (°F) Heat Index (°F) altimeter (in) sea level (mb) 1 hr 3 hr 6 hr
6 hour
Temperature (ºF) Pressure Precipitation (in)